Regional Weather Roundup
Issued by NWS

Home | Current Version | Previous Version | Graphics & Text | Print | Product List | Glossary On
Versions: 1 2 3 4 5 6 7 8 9 10 11 12 13 14 15 16 17 18 19 20 21 22 23 24 25 26 27 28 29 30 31 32 33 34 35 36 37 38 39 40 41 42 43 44 45 46 47 48 49 50
141
ASUS44 KMEG 290500
RWRTN
TENNESSEE HOURLY STATE WEATHER ROUNDUP
NATIONAL WEATHER SERVICE MEMPHIS TN
1200 AM CDT FRI APR 29 2016

TNZ002-004-019-021-049-052-054-088>092-290600-
WEST TENNESSEE

CITY           SKY/WX    TMP DP  RH WIND       PRES   REMARKS
MEMPHIS INTL   CLEAR     69  52  54 CALM      29.96F
NWS MEMPHIS      N/A     61 N/A N/A MISG        N/A
JACKSON        CLEAR     59  56  89 CALM      29.98S
DYERSBURG      CLEAR     63  52  67 CALM      29.99F
UNION CITY     CLEAR     57  54  88 CALM      29.98S
LEXINGTON      CLEAR     57  57 100 CALM      29.98S
$$

TNZ008-025-027-028-033-062-065-066-290600-
NORTH MIDDLE TENNESSEE

CITY           SKY/WX    TMP DP  RH WIND       PRES   REMARKS
NASHVILLE      CLEAR     68  50  52 W5        30.00R
CLARKSVILLE    CLEAR     57  53  86 CALM      29.99S
COOKEVILLE     CLEAR     54  52  94 CALM      29.99F
CROSSVILLE     CLEAR     65  51  60 W6        30.03S
$$

TNZ061-075-076-078-094-096-097-290600-
SOUTH MIDDLE TENNESSEE

CITY           SKY/WX    TMP DP  RH WIND       PRES   REMARKS
TULLAHOMA      CLEAR     57  57 100 CALM      30.01S
WINCHESTER     CLEAR     57  57 100 CALM      30.00F
MCMINNVILLE    CLEAR     57  57 100 CALM      30.00S
COLUMBIA       CLEAR    N/A N/A N/A CALM      29.98S
SHELBYVILLE    CLEAR     57  55  94 E3        30.01R
$$

TNZ017-018-042-046-047-290600-
NORTHEAST TENNESSEE

CITY           SKY/WX    TMP DP  RH WIND       PRES   REMARKS
TRI CITIES     CLEAR     60  55  83 CALM      29.97R
$$

TNZ012-013-036-069-073-074-290600-
CENTRAL EAST TENNESSEE

CITY           SKY/WX    TMP DP  RH WIND       PRES   REMARKS
KNOXVILLE      CLEAR     65  56  72 SW7       29.97R
OAK RIDGE      CLEAR     62  57  83 CALM      29.99R
GATLINBURG     CLEAR     61  55  82 CALM      29.97R
$$

TNZ083-085-099-290600-
SOUTHEAST TENNESSEE

CITY           SKY/WX    TMP DP  RH WIND       PRES   REMARKS
CHATTANOOGA    CLEAR     65  58  78 CALM      29.97S
$$

SKY/WX REPORTED AS FAIR MEANS FEW OR NO CLOUDS BELOW
12 THOUSAND FEET.





USA.gov is the U.S. government's official web portal to all federal, state and local government web resources and services.